Mesquite, TX

10:34 PM CDT on August 20, 2017 (GMT -0500)
Mesquite Metro

Weather History for KHQZ - January, 2014

Change the Weather History Date:

Wednesday, January 15, 2014

  Actual Average (KDFW) Record (KDFW)
Temperature  
Mean Temperature 42 °F -  
Max Temperature 53 °F 55 °F 80 °F (1914)
Min Temperature 32 °F 35 °F 11 °F (1905)
Degree Days  
Heating Degree Days 22    
Moisture  
Dew Point 21 °F    
Average Humidity 44    
Maximum Humidity 65    
Minimum Humidity 27    
Precipitation  
Precipitation 0.00 in - - ()
Sea Level Pressure  
Sea Level Pressure 30.29 in    
Wind  
Wind Speed 5 mph (West)    
Max Wind Speed 12 mph    
Max Gust Speed -    
Visibility 10 miles    
Events      
Averages and records for this station are not official NWS values.
T = Trace of Precipitation, MM = Missing Value Source: NWS Daily Summary

Daily Weather History Graph

Daily Weather History Graph

Search for Another Location

Airport or City:

Trip Planner

Search our weather history database for the weather conditions in past years. The results will help you decide how hot, cold, wet, or windy it might be!

Date:

Astronomy

Jan. 15, 2014 Rise Set
Actual Time 7:28 AM CST 5:42 PM CST
Civil Twilight 7:01 AM CST 6:09 PM CST
Nautical Twilight 6:31 AM CST 6:39 PM CST
Astronomical Twilight 6:01 AM CST 7:09 PM CST
Moon 5:38 PM CST (1/15) 6:48 AM CST (1/15)
Length of Visible Light 11h 07m
Length of Day
10h 14m
Full, 100% of the Moon is Illuminated
Jan 15
Full
Jan 15
Full
Jan 23
Last Quarter
Jan 30
New
Feb 6
First Quarter

Hourly Weather History & Observations

Time (CST) Temp. Windchill Dew Point Humidity Pressure Visibility Wind Dir Wind Speed Gust Speed Precip Events Conditions
12:15 AM 40.5 °F 35.8 °F 20.1 °F 44% 30.35 in 10.0 mi NW 6.9 mph - N/A   Clear
12:35 AM 39.7 °F 35.6 °F 19.4 °F 44% 30.34 in 10.0 mi NW 5.8 mph - N/A   Clear
12:55 AM 39.7 °F 37.6 °F 18.7 °F 43% 30.34 in 10.0 mi NNW 3.5 mph - N/A   Clear
1:15 AM 40.1 °F - 18.3 °F 42% 30.34 in 10.0 mi Calm Calm - N/A   Clear
1:35 AM 38.1 °F 34.6 °F 18.9 °F 46% 30.34 in 10.0 mi WNW 4.6 mph - N/A   Clear
1:55 AM 38.3 °F 34.8 °F 18.5 °F 45% 30.35 in 10.0 mi West 4.6 mph - N/A   Clear
2:15 AM 36.9 °F 33.1 °F 18.9 °F 48% 30.36 in 10.0 mi West 4.6 mph - N/A   Clear
2:35 AM 36.5 °F 32.7 °F 19.4 °F 50% 30.36 in 10.0 mi West 4.6 mph - N/A   Clear
2:55 AM 34.7 °F - 20.3 °F 56% 30.36 in 10.0 mi Calm Calm - N/A   Clear
3:15 AM 35.8 °F - 19.4 °F 51% 30.36 in 10.0 mi Calm Calm - N/A   Clear
3:35 AM 34.9 °F - 19.4 °F 53% 30.36 in 10.0 mi Calm Calm - N/A   Clear
3:55 AM 32.9 °F - 19.9 °F 59% 30.36 in 10.0 mi Calm Calm - N/A   Clear
4:15 AM 34.0 °F - 20.3 °F 57% 30.37 in 10.0 mi Calm Calm - N/A   Clear
4:35 AM 32.2 °F - 20.7 °F 63% 30.37 in 10.0 mi Calm Calm - N/A   Clear
4:55 AM 34.7 °F - 19.6 °F 54% 30.36 in 10.0 mi Calm Calm - N/A   Clear
5:15 AM 35.2 °F 31.2 °F 19.0 °F 52% 30.37 in 10.0 mi NW 4.6 mph - N/A   Clear
5:35 AM 36.7 °F 31.2 °F 20.1 °F 51% 30.37 in 10.0 mi WNW 6.9 mph - N/A   Clear
5:55 AM 36.7 °F 31.2 °F 20.3 °F 52% 30.37 in 10.0 mi NW 6.9 mph - N/A   Clear
6:15 AM 36.1 °F 30.6 °F 20.8 °F 54% 30.37 in 10.0 mi NW 6.9 mph - N/A   Clear
6:35 AM 36.0 °F 30.3 °F 21.2 °F 55% 30.37 in 10.0 mi WNW 6.9 mph - N/A   Clear
6:55 AM 36.5 °F 31.0 °F 21.0 °F 54% 30.37 in 10.0 mi NW 6.9 mph - N/A   Clear
7:15 AM 33.4 °F - 20.7 °F 59% 30.38 in 10.0 mi Calm Calm - N/A   Clear
7:35 AM 36.0 °F 32.1 °F 20.1 °F 53% 30.38 in 10.0 mi WNW 4.6 mph - N/A   Clear
7:55 AM 34.2 °F 30.0 °F 21.4 °F 60% 30.39 in 10.0 mi NW 4.6 mph - N/A   Clear
8:15 AM 35.6 °F 32.8 °F 22.1 °F 58% 30.40 in 10.0 mi NW 3.5 mph - N/A   Clear
8:35 AM 37.6 °F 32.3 °F 22.1 °F 54% 30.40 in 10.0 mi NW 6.9 mph - N/A   Clear
8:55 AM 38.7 °F 31.8 °F 21.9 °F 51% 30.41 in 10.0 mi NNW 10.4 mph - N/A   Clear
9:15 AM 39.9 °F 33.4 °F 21.6 °F 48% 30.41 in 10.0 mi NNW 10.4 mph - N/A   Clear
9:35 AM 41.0 °F 35.2 °F 20.7 °F 44% 30.41 in 10.0 mi North 9.2 mph - N/A   Clear
9:55 AM 41.9 °F 37.5 °F 20.3 °F 42% 30.41 in 10.0 mi North 6.9 mph - N/A   Clear
10:15 AM 41.9 °F 37.5 °F 19.2 °F 40% 30.40 in 10.0 mi NNW 6.9 mph - N/A   Clear
10:35 AM 42.8 °F 40.1 °F 19.0 °F 39% 30.40 in 10.0 mi NW 4.6 mph - N/A   Clear
10:55 AM 43.9 °F 40.5 °F 18.3 °F 36% 30.40 in 10.0 mi NW 5.8 mph - N/A   Clear
11:15 AM 44.8 °F - 18.1 °F 34% 30.39 in 10.0 mi Calm Calm - N/A   Clear
11:35 AM 45.7 °F 43.4 °F 18.3 °F 34% 30.38 in 10.0 mi WNW 4.6 mph - N/A   Clear
11:55 AM 46.8 °F - 18.0 °F 32% 30.37 in 10.0 mi NW 6.9 mph - N/A   Clear
12:15 PM 47.7 °F - 18.9 °F 32% 30.35 in 10.0 mi West 5.8 mph - N/A   Clear
12:35 PM 48.2 °F - 18.5 °F 31% 30.34 in 10.0 mi WNW 5.8 mph - N/A   Clear
12:55 PM 48.9 °F - 19.4 °F 31% 30.33 in 10.0 mi West 10.4 mph - N/A   Clear
1:15 PM 49.6 °F - 18.7 °F 29% 30.31 in 10.0 mi West 10.4 mph - N/A   Clear
1:35 PM 50.7 °F - 19.4 °F 29% 30.30 in 10.0 mi WNW 9.2 mph - N/A   Clear
1:55 PM 51.1 °F - 18.3 °F 27% 30.29 in 10.0 mi West 11.5 mph - N/A   Clear
2:15 PM 51.1 °F - 18.9 °F 28% 30.28 in 10.0 mi West 9.2 mph - N/A   Clear
2:35 PM 50.9 °F - 19.2 °F 29% 30.27 in 10.0 mi West 4.6 mph - N/A   Clear
2:55 PM 51.8 °F - 19.4 °F 28% 30.26 in 10.0 mi West 10.4 mph - N/A   Clear
3:15 PM 52.7 °F - 19.6 °F 27% 30.24 in 10.0 mi SW 5.8 mph - N/A   Clear
3:35 PM 53.1 °F - 19.8 °F 27% 30.24 in 10.0 mi West 5.8 mph - N/A   Clear
3:55 PM 53.2 °F - 20.5 °F 28% 30.23 in 10.0 mi WSW 5.8 mph - N/A   Clear
4:15 PM 53.1 °F - 20.3 °F 28% 30.23 in 10.0 mi WNW 3.5 mph - N/A   Clear
4:35 PM 53.6 °F - 20.3 °F 27% 30.22 in 10.0 mi NW 3.5 mph - N/A   Clear
4:55 PM 53.6 °F - 20.5 °F 27% 30.21 in 10.0 mi SW 3.5 mph - N/A   Clear
5:15 PM 51.8 °F - 21.2 °F 30% 30.21 in 10.0 mi South 3.5 mph - N/A   Clear
5:35 PM 51.1 °F - 20.3 °F 30% 30.20 in 10.0 mi South 3.5 mph - N/A   Clear
5:55 PM 49.8 °F - 21.2 °F 32% 30.19 in 10.0 mi SE 3.5 mph - N/A   Clear
6:15 PM 46.6 °F - 21.0 °F 36% 30.18 in 10.0 mi ESE 4.6 mph - N/A   Clear
6:35 PM 45.5 °F 43.2 °F 21.2 °F 38% 30.18 in 10.0 mi ESE 4.6 mph - N/A   Clear
6:55 PM 44.6 °F 41.4 °F 21.7 °F 40% 30.18 in 10.0 mi SE 5.8 mph - N/A   Clear
7:15 PM 44.6 °F 41.4 °F 22.3 °F 41% 30.17 in 10.0 mi SE 5.8 mph - N/A   Clear
7:35 PM 43.7 °F 39.7 °F 23.0 °F 44% 30.17 in 10.0 mi SE 6.9 mph - N/A   Clear
7:55 PM 43.7 °F 39.1 °F 23.2 °F 44% 30.16 in 10.0 mi SSE 8.1 mph - N/A   Clear
8:15 PM 43.7 °F 39.7 °F 23.4 °F 45% 30.16 in 10.0 mi SE 6.9 mph - N/A   Clear
8:35 PM 43.0 °F 37.7 °F 23.9 °F 47% 30.15 in 10.0 mi SSE 9.2 mph - N/A   Clear
8:55 PM 41.7 °F 37.3 °F 23.9 °F 49% 30.15 in 10.0 mi SSE 6.9 mph - N/A   Clear
9:15 PM 40.8 °F 36.2 °F 24.1 °F 51% 30.15 in 10.0 mi SSE 6.9 mph - N/A   Clear
9:35 PM 39.7 °F 34.9 °F 24.6 °F 55% 30.14 in 10.0 mi SSE 6.9 mph - N/A   Clear
9:55 PM 39.7 °F 34.9 °F 24.8 °F 55% 30.14 in 10.0 mi SSE 6.9 mph - N/A   Clear
10:15 PM 39.0 °F 34.8 °F 24.8 °F 57% 30.15 in 10.0 mi SSE 5.8 mph - N/A   Clear
10:35 PM 39.0 °F 34.0 °F 25.3 °F 58% 30.14 in 10.0 mi SSE 6.9 mph - N/A   Clear
10:55 PM 38.5 °F 34.1 °F 25.7 °F 60% 30.15 in 10.0 mi SSE 5.8 mph - N/A   Clear
11:15 PM 38.5 °F 34.1 °F 25.3 °F 59% 30.13 in 10.0 mi SSE 5.8 mph - N/A   Clear
11:35 PM 37.4 °F 32.8 °F 25.5 °F 62% 30.12 in 10.0 mi SSE 5.8 mph - N/A   Clear
11:55 PM 36.5 °F 31.0 °F 25.9 °F 65% 30.12 in 10.0 mi SSE 6.9 mph - N/A   Clear